Detroit Metro, MI

11:53 PM EDT on March 27, 2017 (GMT -0400)
Detroit Metro Wayne County

Weather History for KDTW - December, 2012

Change the Weather History Date:

Saturday, December 8, 2012

  Actual Average Record
Temperature  
Mean Temperature 39 °F 32 °F  
Max Temperature 42 °F 38 °F 66 °F (1966)
Min Temperature 35 °F 26 °F 0 °F (1977)
Degree Days  
Heating Degree Days 26 33  
Month to date heating degree days 163 251  
Since 1 July heating degree days 1389 1466  
Cooling Degree Days 0 0  
Month to date cooling degree days 0 0  
Year to date cooling degree days 1156 803  
Moisture  
Dew Point 35 °F    
Average Humidity 84    
Maximum Humidity 92    
Minimum Humidity 75    
Precipitation  
Precipitation 0.20 in 0.08 in 1.32 in (1924)
Month to date precipitation 0.61 0.66  
Year to date precipitation 25.08 31.67  
Snow  
Snow 0.00 in 0.30 in 5.80 in (1977)
Month to date snowfall 0.0 1.8  
Since 1 July snowfall 0.4 3.4  
Snow Depth 0.00 in    
Sea Level Pressure  
Sea Level Pressure 29.97 in    
Wind  
Wind Speed 7 mph (North)    
Max Wind Speed 15 mph    
Max Gust Speed 18 mph    
Visibility 7 miles    
Events Rain    
T = Trace of Precipitation, MM = Missing Value Source: NWS Daily Summary

Daily Weather History Graph

Daily Weather History Graph

Search for Another Location

Airport or City:

Trip Planner

Search our weather history database for the weather conditions in past years. The results will help you decide how hot, cold, wet, or windy it might be!

Date:

Astronomy

Dec. 08, 2012 Rise Set
Actual Time 7:49 AM EST 5:01 PM EST
Civil Twilight 7:18 AM EST 5:32 PM EST
Nautical Twilight 6:43 AM EST 6:07 PM EST
Astronomical Twilight 6:09 AM EST 6:41 PM EST
Moon 2:08 AM EST (12/8) 1:34 PM EST (12/8)
Length of Visible Light 10h 14m
Length of Day
9h 11m
Waning Crescent, 28% of the Moon is Illuminated
Dec 8
Waning Crescent
Dec 13
New
Dec 20
First Quarter
Dec 28
Full
Jan 4
Last Quarter

Hourly Weather History & Observations

Time (EST) Temp. Windchill Dew Point Humidity Pressure Visibility Wind Dir Wind Speed Gust Speed Precip Events Conditions
12:53 AM 42.1 °F 39.2 °F 39.9 °F 92% 29.88 in 0.8 mi NNE 4.6 mph - 0.00 in Rain Light Rain
1:34 AM 42.8 °F 39.3 °F 39.2 °F 87% 29.86 in 0.8 mi NNE 5.8 mph - 0.01 in Rain Light Rain
1:53 AM 42.1 °F 39.2 °F 39.9 °F 92% 29.87 in 0.8 mi NNE 4.6 mph - 0.02 in Rain Light Rain
2:00 AM 42.8 °F 40.1 °F 39.2 °F 87% 29.86 in 1.2 mi NNE 4.6 mph - 0.00 in Rain Light Rain
2:53 AM 42.1 °F 38.4 °F 39.9 °F 92% 29.86 in 1.2 mi NNE 5.8 mph - 0.01 in Rain Light Rain
3:53 AM 42.1 °F 38.4 °F 39.9 °F 92% 29.85 in 1.2 mi North 5.8 mph - 0.01 in Rain Light Rain
4:53 AM 42.1 °F 39.2 °F 39.9 °F 92% 29.85 in 1.2 mi North 4.6 mph - 0.01 in Rain Light Rain
5:51 AM 42.8 °F 39.3 °F 39.2 °F 87% 29.82 in 3.0 mi North 5.8 mph - 0.05 in Rain Light Rain
5:53 AM 42.8 °F 38.6 °F 39.2 °F 87% 29.82 in 3.0 mi North 6.9 mph - N/A Rain Light Rain
6:53 AM 42.1 °F 38.4 °F 39.9 °F 92% 29.85 in 4.0 mi North 5.8 mph - 0.04 in Rain Light Rain
7:53 AM 42.1 °F 38.4 °F 39.9 °F 92% 29.85 in 3.0 mi NE 5.8 mph - 0.02 in Rain Light Rain
8:53 AM 41.0 °F 36.4 °F 39.0 °F 93% 29.86 in 6.0 mi North 6.9 mph - 0.00 in   Overcast
9:53 AM 39.9 °F 34.5 °F 37.9 °F 93% 29.90 in 4.0 mi NNW 8.1 mph - 0.02 in Rain Light Rain
10:40 AM 39.2 °F 33.0 °F 37.4 °F 93% 29.91 in 6.0 mi NNW 9.2 mph - 0.01 in Rain Light Rain
10:53 AM 39.9 °F 34.5 °F 37.0 °F 89% 29.92 in 6.0 mi NNW 8.1 mph - 0.02 in Rain Light Rain
11:20 AM 39.2 °F 33.6 °F 37.4 °F 93% 29.91 in 10.0 mi North 8.1 mph - 0.00 in Rain Light Rain
11:31 AM 39.2 °F 31.6 °F 35.6 °F 87% 29.91 in 10.0 mi North 12.7 mph 18.4 mph 0.00 in   Overcast
11:53 AM 37.9 °F 29.6 °F 34.0 °F 86% 29.92 in 10.0 mi North 13.8 mph - 0.00 in   Overcast
12:53 PM 37.9 °F 30.9 °F 34.0 °F 86% 29.93 in 10.0 mi North 10.4 mph - 0.00 in   Overcast
1:50 PM 37.4 °F 30.3 °F 33.8 °F 87% 29.93 in 10.0 mi North 10.4 mph - N/A   Overcast
1:53 PM 37.9 °F 31.5 °F 34.0 °F 86% 29.95 in 10.0 mi NNW 9.2 mph - N/A   Overcast
1:59 PM 37.4 °F 30.3 °F 33.8 °F 87% 29.94 in 10.0 mi NW 10.4 mph - N/A   Overcast
2:16 PM 37.4 °F 32.8 °F 33.8 °F 87% 29.94 in 10.0 mi NNW 5.8 mph - N/A   Overcast
2:53 PM 39.0 °F 32.8 °F 33.1 °F 79% 29.98 in 10.0 mi NNW 9.2 mph - N/A   Overcast
3:50 PM 39.2 °F 33.6 °F 33.8 °F 81% 30.00 in 10.0 mi NNW 8.1 mph - N/A   Overcast
3:53 PM 39.0 °F 33.4 °F 33.1 °F 79% 30.01 in 10.0 mi NW 8.1 mph - N/A   Overcast
4:53 PM 37.9 °F 33.5 °F 32.0 °F 79% 30.05 in 10.0 mi NNW 5.8 mph - N/A   Mostly Cloudy
5:09 PM 37.4 °F 32.8 °F 32.0 °F 81% 30.04 in 10.0 mi NNW 5.8 mph - N/A   Overcast
5:53 PM 37.9 °F 31.5 °F 30.0 °F 73% 30.08 in 10.0 mi NNW 9.2 mph - N/A   Overcast
6:53 PM 37.0 °F 30.4 °F 30.0 °F 76% 30.11 in 10.0 mi NNW 9.2 mph - N/A   Overcast
7:38 PM 35.6 °F 29.2 °F 30.2 °F 81% 30.12 in 10.0 mi NNW 8.1 mph - N/A   Overcast
7:53 PM 36.0 °F 29.0 °F 30.0 °F 79% 30.14 in 10.0 mi NNW 9.2 mph - N/A   Overcast
8:34 PM 35.6 °F 31.7 °F 30.2 °F 81% 30.14 in 10.0 mi North 4.6 mph - N/A   Overcast
8:53 PM 36.0 °F 31.1 °F 30.0 °F 79% 30.15 in 10.0 mi North 5.8 mph - N/A   Overcast
9:53 PM 36.0 °F 29.0 °F 28.9 °F 76% 30.17 in 10.0 mi North 9.2 mph - N/A   Overcast
10:53 PM 36.0 °F - 28.0 °F 73% 30.18 in 10.0 mi Calm Calm - N/A   Overcast
11:53 PM 36.0 °F - 28.0 °F 73% 30.20 in 10.0 mi Calm Calm - N/A   Overcast